Location: Ku?niki
(51.4449°N, 17.8974°E)
Time: 05:57:06
(UTC+00:00)

Resurs 1-3 - Pass Details

Date: 18 September 2020
Orbit: 630 x 632 km, 97.9° (Epoch: 21 October)

Event Time Altitude Azimuth Distance (km) Brightness Sun altitude
Exits shadow 18:23:50 21° 134° (SE) 1,426 4.9 -14.3°
Maximum altitude 18:26:29 47° 69° (ENE) 839 3.9 -14.7°
Drops below altitude 10° 18:30:43 10° 356° (N) 2,027 6.5 -15.3°
Sets 18:32:59 0° 351° (N) 2,939 7.5 -15.6°
